GW1765 Weather Reports


Display with metric or nautical units.
time (UTC)temp
F
wind
direction
speed
MPH
gust
MPH
rain 1hr
in
rain 24hr
in
rain mn
in
humidity
%
barometer
mb
20260903065039 56 295 10.0 15.0 0.00 0.00 0.00 99 1015.8
20260903064035 56 315 9.0 15.0 0.00 0.00 0.00 99 1015.8
20260903063032 56 309 9.0 13.0 0.00 0.00 0.00 98 1015.7
20260903062029 56 319 10.0 13.0 0.00 0.00 0.00 98 1015.5
20260903061025 56 315 10.0 13.0 0.00 0.00 0.00 97 1015.5
20260903060023 56 312 11.0 15.0 0.00 0.00 0.00 96 1015.5
20260903055018 56 319 11.0 16.0 0.00 0.00 0.00 96 1015.6
20260903054115 56 315 11.0 16.0 0.00 0.00 0.00 95 1015.6
20260903053111 56 315 6.0 15.0 0.00 0.00 0.00 95 1015.5
20260903052110 56 315 10.0 13.0 0.00 0.00 0.00 94 1015.6
20260903051106 56 315 9.0 14.0 0.00 0.00 0.00 93 1015.6
20260903050100 56 315 9.0 14.0 0.00 0.00 0.00 93 1015.5
20260903045057 56 323 8.0 12.0 0.00 0.00 0.00 92 1015.6
20260903044053 56 324 9.0 11.0 0.00 0.00 0.00 92 1015.6
20260903043050 55 0 4.0 6.0 0.00 0.00 0.00 91 1015.7
20260903042046 55 357 7.0 11.0 0.00 0.00 0.00 91 1015.6
20260903041044 56 0 8.0 13.0 0.00 0.00 0.00 91 1015.8
20260903040040 56 349 8.0 13.0 0.00 0.00 0.00 92 1015.9
20260903035035 56 353 8.0 13.0 0.00 0.00 0.00 92 1016.1
20260903034033 55 0 7.0 10.0 0.00 0.00 0.00 92 1016.0
20260903033030 55 349 9.0 13.0 0.00 0.00 0.00 92 1016.1
20260903032046 55 0 9.0 11.0 0.00 0.00 0.00 91 1016.2
20260903031022 55 180 9.0 11.0 0.00 0.00 0.00 91 1016.3
20260903030020 0 0.0 0.0 0.00 0.00 0.00 1016.4
20260903025115 0 0.0 0.0 0.00 0.00 0.00 1016.4
20260903024111 56 315 14.0 15.0 0.00 0.00 0.00 90 1016.5
20260903023108 56 315 14.0 16.0 0.00 0.00 0.00 90 1016.5
20260903022105 56 356 14.0 20.0 0.00 0.00 0.00 90 1016.6
20260903021101 56 350 14.0 19.0 0.00 0.00 0.00 89 1016.6
20260903020057 56 340 14.0 22.0 0.00 0.00 0.00 88 1016.6
20260903015053 57 350 12.0 18.0 0.00 0.00 0.00 88 1016.8
20260903014051 57 339 13.0 19.0 0.00 0.00 0.00 87 1017.0
20260903013047 57 332 14.0 19.0 0.00 0.00 0.00 85 1017.3
20260903012043 57 330 13.0 21.0 0.00 0.00 0.00 83 1017.5
20260903011041 57 350 13.0 20.0 0.00 0.00 0.00 80 1017.6
20260903010059 58 343 12.0 17.0 0.00 0.00 0.00 80 1017.8
20260903005033 58 356 11.0 16.0 0.00 0.00 0.00 80 1018.1
20260903004029 58 337 12.0 18.0 0.00 0.01 0.00 80 1018.2
20260903003026 58 340 12.0 17.0 0.00 0.01 0.00 80 1018.5
20260903002025 58 333 11.0 17.0 0.00 0.02 0.00 80 1018.7
20260903001039 58 326 14.0 18.0 0.00 0.02 0.00 80 1018.7
20260903000016 58 331 13.0 18.0 0.00 0.02 0.00 81 1018.5
20260902235113 58 337 9.0 13.0 0.00 0.02 0.00 81 1018.7
20260902234109 57 326 12.0 17.0 0.00 0.02 0.00 80 1018.9
20260902233127 57 348 11.0 17.0 0.00 0.02 0.00 80 1018.9
20260902232102 57 340 12.0 21.0 0.00 0.02 0.00 78 1019.1
20260902231059 58 321 13.0 17.0 0.00 0.04 0.00 78 1019.2
20260902230055 57 320 10.0 15.0 0.00 0.04 0.00 79 1019.2
20260902225054 57 343 11.0 17.0 0.00 0.04 0.00 79 1019.2
20260902224048 57 332 12.0 18.0 0.00 0.04 0.00 80 1019.3
20260902223105 57 318 13.0 17.0 0.00 0.04 0.00 81 1019.4
20260902222042 56 332 12.0 16.0 0.00 0.04 0.00 81 1019.4
20260902221038 56 331 10.0 16.0 0.00 0.04 0.00 80 1019.5
20260902220035 57 324 9.0 13.0 0.00 0.04 0.00 79 1019.8
20260902215032 57 336 10.0 15.0 0.00 0.04 0.00 79 1019.8
20260902214028 57 337 8.0 11.0 0.00 0.04 0.00 82 1019.8
20260902213024 56 336 11.0 16.0 0.00 0.04 0.00 82 1019.9
20260902212021 56 342 7.0 11.0 0.00 0.04 0.00 85 1019.9
20260902211017 56 342 6.0 11.0 0.00 0.04 0.00 88 1020.0
20260902210114 56 348 4.0 8.0 0.00 0.04 0.00 91 1020.0
20260902205133 55 334 5.0 8.0 0.00 0.04 0.00 91 1020.1
20260902204129 54 4 6.0 11.0 0.00 0.04 0.00 93 1020.0
20260902203103 54 353 6.0 10.0 0.00 0.04 0.00 95 1019.9
20260902202100 54 346 5.0 9.0 0.00 0.04 0.00 96 1019.9
20260902201059 54 356 5.0 6.0 0.00 0.04 0.00 96 1019.9
20260902200053 54 351 5.0 8.0 0.00 0.04 0.00 96 1019.6
20260902195050 53 352 4.0 6.0 0.00 0.04 0.00 97 1019.5
20260902194046 53 349 6.0 10.0 0.00 0.04 0.00 97 1019.3
20260902193042 53 357 7.0 10.0 0.00 0.04 0.00 97 1019.3
20260902192039 53 355 5.0 9.0 0.00 0.04 0.00 97 1019.3
20260902191035 53 341 5.0 11.0 0.00 0.04 0.00 97 1019.3
20260902190032 53 352 5.0 8.0 0.00 0.04 0.00 97 1019.2
20260902185028 53 10 4.0 6.0 0.00 0.04 0.00 96 1019.2
20260902184025 53 0 3.0 6.0 0.00 0.04 0.00 96 1019.3
20260902183037 53 3 4.0 5.0 0.00 0.04 0.00 96 1019.2
20260902182018 53 0 4.0 6.0 0.00 0.05 0.00 96 1019.3
20260902181137 53 15 5.0 8.0 0.00 0.05 0.00 96 1019.3
20260902180112 52 13 5.0 8.0 0.00 0.05 0.00 96 1019.2
20260902175109 53 9 4.0 5.0 0.00 0.05 0.00 95 1019.2
20260902174104 53 352 4.0 8.0 0.00 0.06 0.00 95 1019.2
20260902173102 52 15 4.0 6.0 0.00 0.07 0.00 95 1019.2
20260902172058 52 15 3.0 5.0 0.00 0.07 0.00 95 1019.3
20260902171053 52 21 2.0 3.0 0.00 0.07 0.00 95 1019.3
20260902170111 52 0 3.0 5.0 0.00 0.07 0.00 95 1019.2
20260902165049 52 45 3.0 4.0 0.00 0.07 0.00 94 1019.1
20260902164044 52 335 3.0 4.0 0.00 0.07 0.00 94 1019.2
20260902163039 53 318 3.0 5.0 0.00 0.07 0.00 94 1019.1
20260902162117 53 315 4.0 6.0 0.00 0.07 0.00 94 1019.1
20260902161055 53 315 4.0 8.0 0.00 0.07 0.00 94 1019.1
20260902160029 53 321 4.0 8.0 0.00 0.07 0.00 94 1019.0
20260902155025 53 326 3.0 5.0 0.00 0.07 0.00 94 1019.0
20260902153020 53 338 3.0 4.0 0.00 0.07 0.00 94 1019.2
20260902152116 53 0 2.0 4.0 0.00 0.07 0.00 94 1019.3
20260902150108 53 341 5.0 7.0 0.00 0.07 0.00 94 1019.3
20260902145146 53 344 4.0 7.0 0.00 0.07 0.00 94 1019.4
20260902144100 53 336 5.0 7.0 0.00 0.07 0.00 94 1019.5
20260902143115 52 345 5.0 8.0 0.00 0.07 0.00 93 1019.6
20260902142056 52 339 6.0 10.0 0.00 0.07 0.00 93 1019.7
20260902113056 50 70 2.0 3.0 0.00 0.11 0.11 91 1019.6
20260902112051 51 38 1.0 2.0 0.00 0.11 0.11 91 1019.5
20260902111048 51 37 2.0 3.0 0.00 0.11 0.11 91 1019.5
20260902110045 51 30 1.0 2.0 0.00 0.11 0.11 91 1019.5
20260902105041 51 15 1.0 2.0 0.00 0.11 0.11 91 1019.3
20260902104040 52 0 0.0 2.0 0.00 0.11 0.11 91 1019.4
20260902103055 52 0 0.0 2.0 0.00 0.11 0.11 90 1019.4
20260902102031 52 338 0.0 2.0 0.00 0.11 0.11 90 1019.3
20260902101027 51 0 0.0 2.0 0.00 0.11 0.11 90 1019.3
20260902100023 51 324 0.0 2.0 0.00 0.11 0.11 90 1019.3
20260902095020 52 318 2.0 3.0 0.00 0.11 0.11 90 1019.2
20260902094017 52 353 2.0 3.0 0.00 0.11 0.11 90 1019.1
20260902093114 52 333 3.0 4.0 0.00 0.11 0.11 90 1019.2
20260902092110 53 315 3.0 5.0 0.00 0.11 0.11 90 1019.2
20260902091106 53 305 4.0 5.0 0.00 0.11 0.11 90 1019.1
20260902085059 53 297 3.0 5.0 0.00 0.11 0.11 89 1019.1
20260902084139 53 315 2.0 4.0 0.00 0.11 0.11 89 1019.0
20260902083053 53 309 3.0 6.0 0.00 0.11 0.11 88 1019.1
20260902082049 53 310 3.0 4.0 0.00 0.11 0.11 87 1019.0
20260902081046 53 315 2.0 4.0 0.00 0.11 0.11 86 1018.9
20260902080044 53 318 2.0 4.0 0.00 0.11 0.11 86 1018.9
20260902075038 53 315 2.0 3.0 0.00 0.11 0.11 86 1018.9
20260902074036 53 320 2.0 4.0 0.00 0.11 0.11 86 1019.0
20260902073031 54 307 3.0 4.0 0.00 0.11 0.11 85 1019.0
20260902072029 54 315 4.0 7.0 0.00 0.11 0.11 85 1019.0
20260902071045 54 311 4.0 7.0 0.00 0.11 0.11 85 1019.0
20260902070041 54 315 3.0 5.0 0.00 0.11 0.11 85 1019.0